Precipitable_Water
0.41 0.32 0.27 0.32 0.40 0.52 0.54 0.53 0.65 0.72 0.80 0.73 0.70 0.77 0.83 0.82 0.84 0.91 0.95 0.93 0.96 0.97 1.18 1.22 1.32 1.41 1.41 1.41 1.38 1.52 1.50 1.63 1.48 1.48 1.44 1.47 1.45 1.52 1.56 1.64 1.64 1.69 1.67 1.65
0.32 0.25 0.32 0.35 0.41 0.40 0.43 0.41 0.46 0.65 0.66 0.65 0.78 0.83 1.03 0.84 0.74 0.85 0.95 0.94 0.96 1.03 0.98 0.95 1.08 1.18 1.25 1.47 1.38 1.27 1.26 1.27 1.40 1.56 1.44 1.39 1.33 1.33 1.28 1.33 1.40 1.49 1.51 1.46
0.27 0.28 0.34 0.33 0.32 0.33 0.38 0.32 0.36 0.53 0.58 0.60 0.52 0.73 0.83 1.00 0.83 0.83 0.88 0.97 1.00 0.97 0.97 0.98 1.05 1.11 1.24 1.24 1.26 1.22 1.30 1.35 1.39 1.42 1.37 1.42 1.36 1.18 1.15 1.34 1.46 1.42 1.33 1.21
0.29 0.34 0.33 0.32 0.29 0.28 0.28 0.32 0.33 0.34 0.44 0.40 0.53 0.42 0.69 0.90 0.81 0.86 0.89 0.81 0.93 0.95 1.03 1.09 1.09 1.14 1.22 1.23 1.29 1.31 1.28 1.33 1.37 1.28 1.17 1.07 0.86 0.69 0.97 1.06 1.13 1.05 0.98 0.91
0.22 0.28 0.29 0.30 0.32 0.31 0.27 0.32 0.30 0.33 0.32 0.34 0.42 0.48 0.62 0.87 0.73 0.74 0.88 0.86 0.87 0.97 1.02 1.05 1.12 1.16 1.26 1.33 1.31 1.37 1.35 1.31 1.24 1.02 0.87 0.78 0.72 0.86 0.86 0.88 0.83 0.80 0.92 1.02
0.25 0.26 0.24 0.24 0.28 0.29 0.31 0.43 0.37 0.33 0.31 0.28 0.36 0.46 0.56 0.76 0.88 0.81 0.89 0.97 0.97 0.96 1.01 1.05 1.13 1.18 1.22 1.36 1.33 1.37 1.33 1.11 0.94 0.96 0.94 0.79 0.69 0.64 0.61 0.76 0.81 0.95 1.01 0.98
0.22 0.25 0.29 0.28 0.28 0.33 0.34 0.40 0.35 0.32 0.33 0.32 0.42 0.44 0.58 0.72 0.82 0.87 0.99 1.11 0.97 0.93 1.02 1.06 1.12 1.13 1.19 1.33 1.33 1.42 1.22 0.99 0.96 0.95 0.97 0.88 0.81 0.75 0.76 0.83 0.87 0.88 0.85 0.96
0.20 0.20 0.30 0.29 0.30 0.32 0.33 0.36 0.33 0.30 0.33 0.36 0.48 0.44 0.49 0.63 0.77 0.92 1.01 1.11 0.98 0.89 0.93 1.08 1.21 1.22 1.27 1.38 1.44 1.39 1.16 0.94 0.97 1.00 0.98 0.97 0.91 0.87 0.87 0.93 0.91 0.83 0.80 0.91
0.22 0.27 0.37 0.31 0.35 0.36 0.35 0.32 0.39 0.37 0.36 0.30 0.41 0.44 0.48 0.47 0.48 0.48 0.61 0.63 0.97 0.99 1.16 1.03 1.17 1.30 1.35 1.43 1.53 1.39 1.22 1.02 1.00 1.04 1.12 1.11 1.07 0.92 0.78 0.84 0.84 0.80 0.99 0.98
0.31 0.32 0.33 0.32 0.36 0.37 0.37 0.43 0.32 0.33 0.26 0.29 0.33 0.35 0.38 0.50 0.54 0.55 0.49 0.46 0.66 0.98 1.03 1.23 1.17 1.36 1.42 1.48 1.56 1.50 1.32 1.10 1.04 1.10 1.19 1.20 1.05 1.00 0.97 0.85 0.79 0.84 0.89 0.95
0.38 0.36 0.36 0.35 0.32 0.31 0.35 0.37 0.36 0.35 0.32 0.28 0.31 0.42 0.58 0.59 0.58 0.55 0.58 0.60 0.56 0.62 0.95 1.29 1.22 1.40 1.46 1.53 1.57 1.52 1.34 1.17 1.12 1.12 1.22 1.18 0.98 0.99 1.03 0.95 0.85 0.90 0.99 1.03
0.36 0.36 0.34 0.38 0.39 0.38 0.37 0.38 0.44 0.36 0.36 0.42 0.46 0.42 0.55 0.54 0.54 0.55 0.58 0.58 0.63 0.67 0.79 1.29 1.29 1.39 1.44 1.49 1.53 1.45 1.34 1.19 1.17 1.20 1.25 1.23 1.09 1.02 1.00 0.96 0.90 0.95 0.97 1.03
0.35 0.33 0.31 0.37 0.39 0.39 0.34 0.39 0.38 0.38 0.38 0.36 0.39 0.40 0.59 0.55 0.56 0.60 0.61 0.62 0.68 0.72 0.84 1.22 1.19 1.16 1.34 1.37 1.42 1.36 1.30 1.24 1.24 1.26 1.29 1.29 1.11 1.06 1.03 0.98 0.95 0.95 0.97 0.99
0.40 0.31 0.29 0.28 0.36 0.42 0.37 0.36 0.33 0.35 0.37 0.38 0.44 0.53 0.67 0.62 0.64 0.70 0.73 0.70 0.64 0.72 0.82 0.97 1.02 1.13 1.26 1.30 1.31 1.30 1.26 1.21 1.23 1.29 1.34 1.24 1.13 1.09 1.06 1.02 1.01 0.99 1.04 1.05
0.36 0.33 0.32 0.31 0.34 0.36 0.40 0.43 0.39 0.33 0.37 0.39 0.47 0.58 0.65 0.79 0.81 0.78 0.75 0.67 0.57 0.60 0.70 0.98 1.06 1.10 1.33 1.35 1.33 1.33 1.30 1.23 1.23 1.24 1.29 1.14 1.13 1.14 1.09 1.00 1.00 1.00 1.02 1.10
0.37 0.31 0.35 0.33 0.35 0.33 0.32 0.34 0.45 0.42 0.36 0.32 0.39 0.49 0.58 0.71 0.74 0.72 0.68 0.67 0.61 0.52 0.53 0.71 1.17 1.19 1.33 1.39 1.37 1.40 1.29 1.29 1.27 1.26 1.15 1.15 1.13 1.09 1.01 1.00 1.02 1.03 1.05 1.07
0.37 0.33 0.31 0.29 0.36 0.36 0.31 0.34 0.34 0.39 0.43 0.43 0.42 0.49 0.61 0.66 0.68 0.67 0.65 0.68 0.64 0.52 0.53 0.60 0.82 1.21 1.49 1.39 1.42 1.33 1.33 1.41 1.28 1.18 1.11 1.08 1.06 0.95 0.96 0.99 0.97 1.02 1.04 1.05
0.49 0.40 0.35 0.30 0.36 0.31 0.35 0.44 0.41 0.38 0.44 0.49 0.50 0.54 0.72 0.67 0.70 0.63 0.65 0.64 0.52 0.55 0.58 0.63 0.83 1.06 1.32 1.46 1.42 1.43 1.42 1.39 1.25 1.17 1.12 1.06 0.97 0.95 1.00 1.01 1.01 1.10 1.11 1.01
0.75 0.60 0.46 0.36 0.32 0.38 0.48 0.51 0.55 0.54 0.52 0.53 0.53 0.57 0.66 0.75 0.72 0.69 0.69 0.63 0.63 0.69 0.68 0.65 0.72 0.95 1.32 1.37 1.38 1.36 1.36 1.31 1.16 1.14 1.03 0.97 0.96 0.96 1.02 1.05 1.15 1.20 1.21 1.09
0.72 0.72 0.67 0.63 0.42 0.33 0.45 0.60 0.70 0.67 0.46 0.68 0.70 0.70 0.68 0.72 0.64 0.73 0.75 0.73 0.80 0.82 0.81 0.76 0.81 1.01 1.26 1.32 1.38 1.35 1.26 1.15 1.11 0.98 0.95 0.98 1.01 1.07 1.08 1.16 1.26 1.30 1.23 1.16
0.49 0.54 0.47 0.41 0.34 0.37 0.53 0.67 0.73 0.55 0.57 0.76 0.78 0.79 0.78 0.71 0.75 0.82 0.84 0.77 0.80 0.82 0.80 0.82 0.90 1.05 1.24 1.37 1.37 1.19 1.15 1.04 0.98 1.03 1.05 1.12 1.17 1.21 1.21 1.23 1.30 1.37 1.17 1.08
0.42 0.45 0.37 0.37 0.31 0.29 0.49 0.68 0.58 0.83 0.84 0.87 0.82 0.84 0.85 0.84 0.82 0.76 0.70 0.85 0.89 0.91 0.95 0.89 0.97 1.10 1.22 1.28 1.24 1.06 1.02 1.08 1.14 1.11 1.16 1.22 1.26 1.29 1.30 1.30 1.28 1.18 1.13 1.17
0.50 0.52 0.53 0.76 0.65 0.85 0.82 0.86 0.88 0.96 0.90 0.86 0.83 0.86 0.85 0.81 0.76 0.71 0.59 0.59 0.93 1.01 1.06 1.05 0.97 1.08 1.11 1.10 1.08 1.08 1.17 1.24 1.26 1.30 1.31 1.31 1.31 1.28 1.24 1.22 1.21 1.12 1.17 1.19
0.77 0.83 0.67 0.65 0.76 0.86 1.02 0.91 0.87 0.85 0.84 0.82 0.82 0.83 0.83 0.77 0.74 0.63 0.60 0.63 0.94 0.98 1.20 1.11 1.15 1.09 1.09 1.23 1.30 1.33 1.42 1.38 1.29 1.20 1.24 1.21 1.18 1.20 1.24 1.22 1.23 1.19 1.22 1.09
0.85 0.77 0.74 0.76 0.87 0.97 0.92 0.85 0.85 0.85 0.86 0.83 0.83 0.82 0.79 0.77 0.71 0.67 0.65 0.79 1.00 1.35 1.25 1.33 1.44 1.30 1.27 1.64 1.50 1.62 1.59 1.38 1.31 1.20 1.20 1.23 1.24 1.16 1.00 1.16 1.45 1.23 0.96 0.88
0.69 0.75 0.78 0.71 0.76 0.90 0.82 0.79 0.75 0.77 0.76 0.76 0.74 0.70 0.72 0.77 0.80 0.89 0.98 1.13 0.98 1.61 1.19 1.09 1.22 1.28 1.29 1.28 1.41 1.33 1.11 1.23 1.18 1.14 1.16 1.16 1.12 1.00 1.14 0.97 0.95 0.96 0.90 0.94
Wind_Speed
19 19 18 18 19 17 15 13 14 12 14 13 7 10 12 11 10 9 9 7 7 7 7 6 6 6 6 5 4 3 3 4 5 6 8 9 11 12 13 13 14 15 16 16
20 22 19 17 19 19 17 12 13 15 12 10 10 10 14 11 11 11 11 9 9 8 7 7 7 6 5 5 3 2 1 2 4 6 8 10 12 13 14 14 14 14 15 14
22 22 20 17 18 18 17 15 13 15 12 10 12 11 10 13 12 12 12 12 12 11 9 9 8 7 6 4 3 2 1 2 4 6 9 11 12 12 13 12 10 11 14 17
23 22 22 20 18 18 19 15 17 18 13 14 14 15 16 20 16 15 15 15 15 13 12 11 10 9 7 6 4 3 2 3 5 7 10 12 14 13 13 13 14 16 18 18
24 23 25 23 21 19 16 15 17 15 16 17 16 14 13 19 18 16 18 18 17 16 15 14 13 11 10 8 6 5 4 4 6 9 12 13 13 13 13 14 15 16 17 17
23 21 22 22 20 19 18 12 16 14 15 18 19 16 12 16 21 19 18 22 19 18 18 17 16 14 12 10 8 7 6 6 7 9 12 14 14 14 14 15 16 16 17 18
25 24 20 20 21 21 18 15 12 12 14 15 16 18 16 17 19 16 12 26 20 18 19 18 18 17 15 14 12 10 9 9 9 10 12 14 15 16 16 15 16 17 18 19
23 24 24 22 23 19 18 18 13 13 10 13 13 11 15 13 13 16 17 22 19 20 20 20 19 19 18 17 16 14 13 12 11 12 12 15 17 17 17 17 17 19 20 21
24 24 24 25 22 22 19 21 19 18 16 10 10 11 14 11 12 14 13 17 21 19 21 20 20 20 19 19 18 17 16 15 14 13 14 16 17 18 19 19 19 20 21 22
23 19 24 24 22 23 21 17 16 17 14 13 12 14 15 13 10 10 11 14 14 18 22 24 20 20 20 20 19 19 18 17 16 15 16 17 18 19 20 20 21 21 22 23
28 20 22 25 24 26 22 18 16 15 14 11 12 5 5 9 9 7 8 9 11 15 18 21 19 21 21 20 20 19 20 19 18 17 17 18 19 21 22 22 22 22 23 23
30 19 19 30 25 25 24 22 16 15 15 14 12 8 10 9 9 10 9 9 9 11 16 20 19 21 21 21 21 21 20 20 20 18 18 19 20 22 23 23 24 24 24 24
29 24 19 20 24 25 25 23 23 20 17 17 16 11 10 10 9 9 8 8 10 11 11 16 19 22 23 22 22 21 20 20 20 19 19 20 22 22 23 24 24 24 25 25
28 29 25 23 23 22 24 26 25 25 21 20 19 10 13 13 13 11 11 10 10 13 16 18 20 22 23 22 21 20 21 21 20 20 20 21 22 23 24 25 25 25 26 26
31 26 27 27 26 23 24 25 26 26 26 22 18 22 16 18 15 12 13 15 15 16 18 20 21 22 25 24 23 22 21 21 21 20 21 21 22 24 25 25 25 26 26 27
27 25 25 27 25 26 27 26 27 26 26 26 26 22 22 18 14 15 15 16 19 20 20 21 23 24 24 25 24 23 22 21 21 21 22 22 24 24 25 25 26 27 28 28
29 29 27 27 27 26 28 27 27 25 25 24 21 16 12 15 18 17 17 19 21 23 22 22 22 22 25 25 25 24 23 23 23 22 22 23 24 25 25 26 26 26 28 29
22 29 29 28 26 28 27 24 24 26 25 23 23 24 17 20 19 21 20 22 23 21 20 19 19 20 22 24 24 24 24 23 23 23 24 25 25 26 26 27 27 27 28 30
14 17 23 28 28 25 24 18 11 9 17 19 20 26 26 17 19 18 21 21 19 17 17 18 19 19 20 22 23 22 22 22 22 23 24 25 26 27 28 28 28 29 29 30
23 20 24 11 20 25 23 20 19 19 24 11 12 16 21 20 17 15 16 15 16 18 18 18 17 18 19 20 21 21 21 21 22 24 25 25 27 28 28 29 29 29 30 31
27 21 24 22 24 26 22 17 14 20 29 27 18 14 14 12 13 11 16 18 20 19 19 18 17 17 17 19 20 20 21 22 23 24 25 27 28 29 30 30 29 29 32 33
29 25 26 28 26 28 22 15 19 11 13 13 15 15 17 17 16 18 20 22 21 20 18 17 15 15 17 19 20 21 21 23 23 25 26 28 29 30 30 30 32 32 31 32
25 23 23 14 12 14 10 14 16 15 13 13 14 16 18 21 23 25 26 25 25 22 21 19 18 18 19 20 21 20 20 21 23 24 26 28 30 30 32 33 32 32 32 31
17 13 18 22 23 17 8 12 14 17 18 18 19 20 22 24 26 28 28 26 26 30 26 23 21 17 19 22 22 22 22 23 24 26 27 30 30 31 34 35 34 31 29 26
22 18 19 16 13 20 15 14 16 16 18 19 20 22 24 27 29 30 28 23 22 20 11 9 8 13 15 24 16 19 15 17 20 25 30 31 32 33 33 28 26 21 28 29
5 11 8 8 13 13 8 11 13 16 18 20 22 23 26 27 27 25 20 20 21 14 17 17 21 21 22 24 25 27 27 26 29 31 31 31 31 31 27 27 26 29 28 27
Wind_Direction
202 200 208 204 198 207 209 216 190 236 188 180 205 198 195 192 182 187 182 181 181 178 168 169 168 165 171 177 187 215 233 260 285 295 298 300 302 303 303 300 299 297 298 300
197 209 209 208 207 216 224 222 218 211 195 216 197 197 201 202 200 201 199 201 197 185 176 177 172 176 167 170 172 195 230 289 301 310 312 311 309 307 304 302 301 303 305 305
205 207 214 215 209 218 230 225 226 212 199 223 237 196 207 238 215 207 213 215 209 203 195 191 188 189 187 185 186 192 249 311 319 320 321 321 317 311 310 313 309 311 312 310
215 209 215 219 218 211 224 223 236 228 214 234 218 242 225 219 218 225 229 218 214 210 207 206 206 206 205 204 214 224 268 305 323 331 330 325 317 311 307 305 304 305 308 309
212 218 214 220 224 223 229 221 226 230 240 241 243 247 207 212 226 236 229 220 217 214 214 213 216 217 216 214 221 237 264 297 313 327 330 330 326 318 314 311 309 310 310 310
222 220 218 215 220 217 214 236 212 229 248 252 238 232 222 240 234 243 240 222 218 221 220 223 222 220 221 221 230 242 259 288 303 319 329 334 331 322 313 310 309 311 313 313
216 220 208 209 208 210 210 212 215 233 237 247 239 236 245 220 235 241 215 229 223 227 223 226 223 221 225 228 234 245 259 276 292 307 321 329 330 324 315 310 308 311 312 313
211 216 207 207 211 205 207 216 216 214 235 246 229 220 235 229 222 231 228 228 228 228 225 225 229 227 228 234 239 248 257 269 282 295 310 324 328 326 318 314 309 309 310 309
206 220 207 208 213 206 206 226 233 252 265 258 222 237 243 237 235 242 245 242 235 240 220 229 230 229 232 239 242 248 254 265 275 286 300 312 320 325 321 314 310 308 309 310
207 216 204 211 212 218 219 217 230 237 255 266 244 252 250 212 218 234 239 244 242 239 234 218 231 232 237 240 245 249 253 262 272 281 292 304 312 317 319 317 312 310 309 309
216 209 208 208 213 217 217 227 224 236 230 252 255 244 167 203 221 225 240 248 249 252 247 235 236 234 238 241 245 250 252 258 268 278 288 301 311 314 316 316 313 310 310 309
218 226 230 210 214 215 226 218 226 234 244 250 262 270 199 212 225 234 247 268 261 261 263 228 236 237 236 241 246 250 252 256 264 272 283 295 307 312 313 314 313 311 310 310
213 221 224 221 214 216 223 227 226 233 242 247 248 234 225 227 227 237 246 276 271 255 255 235 245 242 236 243 246 250 250 255 261 270 280 290 302 307 310 311 312 311 310 310
216 219 223 229 225 216 220 227 232 243 241 246 239 223 227 241 231 236 251 261 276 268 262 251 252 246 240 243 245 248 249 256 261 267 277 286 295 303 309 310 310 310 310 310
217 222 227 230 237 242 237 227 234 240 246 250 239 229 247 253 242 255 257 277 285 286 274 261 252 250 242 242 244 247 249 255 261 266 278 287 295 301 307 308 309 309 310 310
210 219 224 236 239 236 243 248 229 235 240 245 247 239 251 228 243 242 261 276 287 289 281 271 256 250 244 241 244 246 250 255 259 266 277 284 293 298 303 305 307 307 309 310
216 221 226 235 236 243 245 243 242 244 239 242 250 257 215 228 240 257 271 280 288 293 284 276 258 254 244 242 244 248 250 257 257 266 276 285 291 295 299 302 304 306 310 311
226 228 227 232 235 239 241 249 247 245 241 243 243 241 239 249 259 265 270 279 289 289 284 276 262 255 245 241 243 246 251 254 256 264 275 283 289 293 296 298 301 304 307 310
237 228 227 228 230 241 240 245 238 251 257 251 257 240 244 259 260 276 283 275 281 286 287 278 269 255 246 242 244 246 250 250 255 267 276 283 288 291 293 295 298 302 303 309
215 204 223 245 232 241 243 236 240 264 257 256 273 254 243 245 258 265 280 283 281 285 286 281 271 259 245 242 242 247 247 250 259 269 278 284 287 290 292 294 296 299 304 305
229 229 243 247 249 252 250 250 235 240 247 253 244 239 246 264 264 266 283 282 281 283 281 279 270 257 246 242 244 246 248 256 265 274 280 286 288 289 291 292 295 294 301 304
248 243 248 254 251 253 257 236 226 232 226 235 237 243 246 253 269 287 294 279 275 276 276 272 265 254 250 248 249 248 253 260 267 276 282 287 289 290 292 291 294 295 300 301
238 237 235 246 235 265 236 194 207 219 227 243 251 256 260 265 276 283 288 287 268 268 266 264 259 257 257 251 249 252 258 265 275 282 285 289 290 291 291 291 291 293 297 297
236 240 236 237 232 230 274 200 233 242 250 255 261 264 269 275 279 284 285 281 260 266 246 259 248 249 258 256 254 252 257 268 276 283 287 292 291 292 293 293 291 290 296 299
236 235 246 240 233 230 223 239 248 253 258 264 266 274 278 281 283 284 280 267 260 259 244 276 264 267 279 265 278 235 258 290 287 291 294 292 292 293 293 297 288 295 301 300
270 224 212 214 219 246 285 264 255 261 270 271 274 279 283 284 287 281 266 258 262 240 273 270 265 267 268 277 281 280 290 290 293 296 295 294 294 296 290 292 287 295 296 297